This is the latest recevied weather packets stored in our database for station/object DK4DAX-2. If no packets are shown the sender has not sent any weather packets the latest 10 day(s).
| Time | Temp. | Humidity | Pressure | Rain* | Wind** | Luminosity | Snow |
|---|---|---|---|---|---|---|---|
| 1777450502 | 18.89° C | 15% | 1017.7 hPa | 0 mm | - | - | - |
| 1777449603 | 18.89° C | 14% | 1017.6 hPa | 0 mm | - | - | - |
| 1777448702 | 19.44° C | 14% | 1017.6 hPa | 0 mm | - | - | - |
| 1777447802 | 19.44° C | 14% | 1017.5 hPa | 0 mm | - | - | - |
| 1777446903 | 21.11° C | 12% | 1017.4 hPa | 0 mm | - | - | - |
| 1777446002 | 21.67° C | 12% | 1017.4 hPa | 0 mm | - | - | - |
| 1777445102 | 22.78° C | 11% | 1017.3 hPa | 0 mm | - | - | - |
| 1777444203 | 21.11° C | 13% | 1017.2 hPa | 0 mm | - | - | - |
| 1777443303 | 18.89° C | 20% | 1017.1 hPa | 0 mm | - | - | - |
| 1777442403 | 12.22° C | 29% | 1017.2 hPa | 0 mm | - | - | - |
| 1777441502 | 11.67° C | 35% | 1016.7 hPa | 0 mm | - | - | - |
| 1777440602 | 10° C | 41% | 1016.7 hPa | 0 mm | - | - | - |
| 1777439703 | 8.89° C | 44% | 1016.9 hPa | 0 mm | - | - | - |
| 1777438803 | 8.89° C | 42% | 1016.6 hPa | 0 mm | - | - | - |
| 1777437902 | 8.89° C | 42% | 1016.7 hPa | 0 mm | - | - | - |
| 1777437003 | 8.89° C | 42% | 1016.6 hPa | 0 mm | - | - | - |
| 1777436103 | 8.89° C | 38% | 1016.4 hPa | 0 mm | - | - | - |
| 1777435202 | 9.44° C | 37% | 1016.6 hPa | 0 mm | - | - | - |
| 1777434303 | 9.44° C | 36% | 1016.5 hPa | 0 mm | - | - | - |
| 1777433403 | 9.44° C | 35% | 1016.3 hPa | 0 mm | - | - | - |
| 1777432503 | 10° C | 34% | 1016.2 hPa | 0 mm | - | - | - |
| 1777431603 | 10° C | 31% | 1016.1 hPa | 0 mm | - | - | - |
| 1777430703 | 10.56° C | 33% | 1016.2 hPa | 0 mm | - | - | - |
| 1777429803 | 11.11° C | 31% | 1016 hPa | 0 mm | - | - | - |
| 1777428903 | 11.11° C | 31% | 1016.1 hPa | 0 mm | - | - | - |
* Rain latest hour (hover to see other rain measurements)
** Current wind speed in m/s (hover to see current wind gust speed)